When you browse on this site, cookies collect data to enhance your experience and personalize the content and advertising you see.
Visit our Privacy Policy to learn more. By continuing to use the site, you agree to this use of cookies and data.
  • In Hungary
  • List of Countries
  • For 7 days
  • Water Temperature
  • Satellite Maps
  • Weather Map
  • News
  • Weather Widgets
  • user-avatar
    Login

    Hourly Weather Bukowina

    Today, 20 May, Monday

    Time Temperature Precipitation Wind Pressure Humidity
    00:00 +14°C° 0 mm 2 mps 725 mmHg 91%
    01:00 +14°C° 0 mm 1 mps 724 mmHg 90%
    02:00 +14°C° 0 mm 1 mps 724 mmHg 89%
    03:00 +14°C° 0 mm 2 mps 724 mmHg 89%
    04:00 +13°C° 0 mm 2 mps 723 mmHg 89%
    05:00 +14°C° 0 mm 3 mps 724 mmHg 85%
    06:00 +17°C° 0 mm 4 mps 724 mmHg 81%
    07:00 +19°C° 0 mm 5 mps 724 mmHg 76%
    08:00 +19°C° 0 mm 5 mps 725 mmHg 71%
    09:00 +20°C° 0 mm 6 mps 725 mmHg 67%
    10:00 +21°C° 0 mm 6 mps 725 mmHg 62%
    11:00 +21°C° 0 mm 6 mps 725 mmHg 60%
    12:00 +22°C° 0 mm 5 mps 725 mmHg 58%
    13:00 +21°C° 0 mm 5 mps 726 mmHg 61%
    14:00 +21°C° 0 mm 4 mps 726 mmHg 64%
    15:00 +20°C° 0 mm 4 mps 726 mmHg 66%
    16:00 +20°C° 0 mm 4 mps 726 mmHg 68%
    17:00 +19°C° 0 mm 4 mps 726 mmHg 73%
    18:00 +17°C° 0 mm 3 mps 725 mmHg 77%
    19:00 +16°C° 0 mm 3 mps 725 mmHg 81%
    20:00 +14°C° 0 mm 3 mps 725 mmHg 85%
    21:00 +13°C° 0 mm 3 mps 725 mmHg 88%
    22:00 +12°C° 0 mm 3 mps 725 mmHg 92%
    23:00 +11°C° 0 mm 3 mps 725 mmHg 93%

    Tomorrow, 21 May, Tuesday

    Time Temperature Precipitation Wind Pressure Humidity
    00:00 +12°C° 0 mm 2 mps 725 mmHg 93%
    01:00 +12°C° 0 mm 2 mps 725 mmHg 94%
    02:00 +10°C° 0 mm 2 mps 725 mmHg 93%
    03:00 +10°C° 0 mm 2 mps 725 mmHg 93%
    04:00 +11°C° 0 mm 1 mps 725 mmHg 92%
    05:00 +12°C° 0 mm 1 mps 725 mmHg 89%
    06:00 +13°C° 0 mm 1 mps 725 mmHg 85%
    07:00 +14°C° 0 mm 1 mps 724 mmHg 82%
    08:00 +15°C° 0.2 mm 2 mps 724 mmHg 82%
    09:00 +16°C° 0.2 mm 2 mps 724 mmHg 82%
    10:00 +16°C° 0.2 mm 3 mps 724 mmHg 82%
    11:00 +16°C° 2.8 mm 3 mps 724 mmHg 85%
    12:00 +14°C° 2.8 mm 3 mps 724 mmHg 88%
    13:00 +14°C° 2.8 mm 3 mps 724 mmHg 91%
    14:00 +14°C° 3.3 mm 3 mps 724 mmHg 92%
    15:00 +13°C° 3.3 mm 3 mps 723 mmHg 92%
    16:00 +13°C° 3.3 mm 4 mps 723 mmHg 93%
    17:00 +13°C° 2 mm 4 mps 723 mmHg 93%
    18:00 +13°C° 2 mm 4 mps 723 mmHg 93%
    19:00 +13°C° 2 mm 5 mps 723 mmHg 93%
    20:00 +13°C° 0.4 mm 5 mps 723 mmHg 93%
    21:00 +13°C° 0.4 mm 4 mps 724 mmHg 93%
    22:00 +12°C° 0.4 mm 4 mps 724 mmHg 92%
    23:00 +12°C° 0.6 mm 4 mps 724 mmHg 93%

    Day after tomorrow, 22 May, Wednesday

    Time Temperature Precipitation Wind Pressure Humidity
    00:00 +12°C° 0.6 mm 4 mps 724 mmHg 93%
    01:00 +12°C° 0.6 mm 4 mps 724 mmHg 93%
    02:00 +12°C° 0.7 mm 4 mps 724 mmHg 93%
    03:00 +12°C° 0.7 mm 4 mps 724 mmHg 94%
    04:00 +12°C° 0.7 mm 4 mps 724 mmHg 94%
    05:00 +12°C° 0.6 mm 4 mps 724 mmHg 93%
    06:00 +12°C° 0.6 mm 4 mps 724 mmHg 93%
    07:00 +12°C° 0.6 mm 4 mps 724 mmHg 92%
    08:00 +12°C° 0.6 mm 4 mps 725 mmHg 93%
    09:00 +12°C° 0.6 mm 4 mps 725 mmHg 93%
    10:00 +12°C° 0.6 mm 4 mps 725 mmHg 93%
    11:00 +14°C° 0.3 mm 4 mps 725 mmHg 90%
    12:00 +15°C° 0.3 mm 4 mps 726 mmHg 87%
    13:00 +17°C° 0.3 mm 4 mps 726 mmHg 84%
    14:00 +16°C° 1.1 mm 5 mps 726 mmHg 85%
    15:00 +16°C° 1.1 mm 5 mps 725 mmHg 87%
    16:00 +16°C° 1.1 mm 5 mps 725 mmHg 88%
    17:00 +15°C° 0.5 mm 5 mps 725 mmHg 90%
    18:00 +14°C° 0.5 mm 4 mps 725 mmHg 92%
    19:00 +13°C° 0.5 mm 4 mps 726 mmHg 93%
    20:00 +13°C° 0.7 mm 5 mps 726 mmHg 94%
    21:00 +13°C° 0.7 mm 5 mps 726 mmHg 94%
    22:00 +13°C° 0.7 mm 5 mps 727 mmHg 95%
    23:00 +13°C° 0.6 mm 5 mps 727 mmHg 95%

    23 May, Thursday

    Time Temperature Precipitation Wind Pressure Humidity
    00:00 +13°C° 0.6 mm 6 mps 727 mmHg 96%
    01:00 +13°C° 0.6 mm 6 mps 727 mmHg 96%
    02:00 +13°C° 0.8 mm 5 mps 727 mmHg 97%
    03:00 +13°C° 0.8 mm 4 mps 728 mmHg 97%
    04:00 +13°C° 0.8 mm 4 mps 728 mmHg 97%
    05:00 +13°C° 1 mm 4 mps 728 mmHg 97%
    06:00 +13°C° 1 mm 4 mps 728 mmHg 97%
    07:00 +13°C° 1 mm 4 mps 729 mmHg 96%
    08:00 +13°C° 2 mm 4 mps 729 mmHg 96%
    09:00 +12°C° 2 mm 5 mps 730 mmHg 96%
    10:00 +11°C° 2 mm 6 mps 730 mmHg 96%
    11:00 +10°C° 0.6 mm 6 mps 730 mmHg 96%
    12:00 +10°C° 0.6 mm 5 mps 730 mmHg 96%
    13:00 +9°C° 0.6 mm 5 mps 731 mmHg 95%
    14:00 +9°C° 0.7 mm 5 mps 731 mmHg 95%
    15:00 +9°C° 0.7 mm 5 mps 731 mmHg 96%
    16:00 +9°C° 0.7 mm 5 mps 731 mmHg 96%
    17:00 +8°C° 0.4 mm 5 mps 731 mmHg 95%
    18:00 +8°C° 0.4 mm 5 mps 731 mmHg 95%
    19:00 +8°C° 0.4 mm 5 mps 732 mmHg 95%
    20:00 +8°C° 0.1 mm 5 mps 732 mmHg 94%
    21:00 +8°C° 0.1 mm 4 mps 732 mmHg 94%
    22:00 +8°C° 0.1 mm 4 mps 732 mmHg 93%
    23:00 +8°C° 0 mm 4 mps 732 mmHg 93%

    24 May, Friday

    Time Temperature Precipitation Wind Pressure Humidity
    00:00 +8°C° 0 mm 3 mps 732 mmHg 93%
    01:00 +8°C° 0 mm 3 mps 732 mmHg 92%
    02:00 +8°C° 0 mm 3 mps 732 mmHg 93%
    03:00 +7°C° 0 mm 3 mps 731 mmHg 93%
    04:00 +6°C° 0 mm 2 mps 731 mmHg 94%
    05:00 +8°C° 0 mm 3 mps 731 mmHg 91%
    06:00 +9°C° 0 mm 3 mps 731 mmHg 88%
    07:00 +11°C° 0 mm 4 mps 732 mmHg 85%
    08:00 +12°C° 0 mm 4 mps 731 mmHg 77%
    09:00 +13°C° 0 mm 4 mps 731 mmHg 70%
    10:00 +14°C° 0 mm 4 mps 731 mmHg 62%
    11:00 +15°C° 0 mm 4 mps 731 mmHg 60%
    12:00 +17°C° 0 mm 4 mps 730 mmHg 57%
    13:00 +17°C° 0 mm 4 mps 730 mmHg 55%
    14:00 +17°C° 0 mm 4 mps 730 mmHg 56%
    15:00 +17°C° 0 mm 3 mps 729 mmHg 57%
    16:00 +17°C° 0 mm 3 mps 729 mmHg 59%
    17:00 +15°C° 0 mm 2 mps 729 mmHg 65%
    18:00 +14°C° 0 mm 2 mps 729 mmHg 71%
    19:00 +12°C° 0 mm 1 mps 729 mmHg 77%
    20:00 +11°C° 0 mm 1 mps 729 mmHg 79%
    21:00 +10°C° 0 mm 1 mps 729 mmHg 80%
    22:00 +9°C° 0 mm 1 mps 729 mmHg 82%
    23:00 +9°C° 0 mm 1 mps 729 mmHg 83%

    25 May, Saturday

    Time Temperature Precipitation Wind Pressure Humidity
    00:00 +9°C° 0 mm 1 mps 729 mmHg 84%
    01:00 +8°C° 0 mm 1 mps 729 mmHg 85%
    02:00 +8°C° 0 mm 1 mps 729 mmHg 85%
    03:00 +7°C° 0 mm 1 mps 729 mmHg 86%
    04:00 +7°C° 0 mm 1 mps 729 mmHg 87%
    05:00 +9°C° 0 mm 1 mps 729 mmHg 81%
    06:00 +12°C° 0 mm 1 mps 729 mmHg 75%
    07:00 +13°C° 0 mm 0 mps 729 mmHg 69%
    08:00 +15°C° 0 mm 0 mps 729 mmHg 63%
    09:00 +17°C° 0 mm 0 mps 729 mmHg 58%
    10:00 +19°C° 0 mm 0 mps 729 mmHg 53%
    11:00 +21°C° 0 mm 1 mps 729 mmHg 50%
    12:00 +21°C° 0 mm 1 mps 729 mmHg 48%
    13:00 +21°C° 0 mm 2 mps 729 mmHg 46%
    14:00 +20°C° 0 mm 2 mps 728 mmHg 49%
    15:00 +20°C° 0 mm 2 mps 728 mmHg 52%
    16:00 +20°C° 0 mm 2 mps 728 mmHg 55%
    17:00 +19°C° 0 mm 1 mps 728 mmHg 61%
    18:00 +18°C° 0 mm 1 mps 728 mmHg 68%
    19:00 +14°C° 0 mm 0 mps 728 mmHg 74%
    20:00 +14°C° 0 mm 1 mps 728 mmHg 74%
    21:00 +13°C° 0 mm 1 mps 728 mmHg 75%
    22:00 +13°C° 0 mm 2 mps 729 mmHg 75%
    23:00 +13°C° 0 mm 2 mps 729 mmHg 77%
    Show more